Home   Weather   Livermore   Past weeks
Flag for USA

Past Weather in Livermore, California, USA — Yesterday and Last 2 Weeks

Now
57 °F

Clear.


Feels Like: 57 °F
Forecast: 88 / 56 °F
Wind: No wind

Location: Livermore Municipal Airport

Current Time: Apr 24, 2019 at 7:10:18 am

Latest Report: Apr 24, 2019 at 5:53 am


Visibility: 10 mi

Pressure: 29.92 "Hg

Humidity: 78%

Dew Point: 50 °F

Location of LivermoreLocation

Past Weather in Livermore — Graph

°F

Livermore Temperature Yesterday

Maximum temperature yesterday: 87 °F (at 4:53 pm)
Minimum temperature yesterday: 50 °F (at 5:53 am)
Average temperature yesterday: 70 °F

High & Low Weather Summary for the Past Weeks

 TemperatureHumidityPressure
High87 °F (Apr 23, 4:53 pm)96% (Apr 15, 11:53 pm)30.30 "Hg (Apr 15, 11:53 pm)
Low41 °F (Apr 12, 6:53 am)20% (Apr 22, 1:53 pm)29.83 "Hg (Apr 19, 6:53 pm)
Average58 °F67%30.03 "Hg
* Reported Apr 9 4:24 am — Apr 24 4:53 am, Livermore. Weather by CustomWeather, © 2019

Note: Actual official high and low records may vary slightly from our data, if they occured in-between our weather recording intervals... More about our weather records

Advertising

Livermore Weather History for the Previous 24 Hours

Scroll right to see more
 ConditionsComfort  
Time TempWeatherWind HumidityBarometerVisibility
4:53 am
Wed, Apr 24
59 °FClear.No wind75%29.92 "Hg10 mi
3:53 am59 °FClear.No wind75%29.91 "Hg10 mi
2:53 am60 °FClear.5 mph72%29.91 "Hg10 mi
1:53 am61 °FClear.No wind70%29.92 "Hg10 mi
12:53 am62 °FClear.No wind67%29.92 "Hg10 mi
11:53 pm
Tue, Apr 23
62 °FClear.No wind67%29.92 "Hg10 mi
10:53 pm67 °FClear.3 mph59%29.92 "Hg10 mi
9:53 pm69 °FClear.No wind55%29.93 "Hg10 mi
8:53 pm75 °FClear.No wind40%29.91 "Hg10 mi
7:53 pm76 °FClear.7 mph37%29.89 "Hg10 mi
6:53 pm82 °FSunny.7 mph37%29.89 "Hg10 mi
5:53 pm86 °FSunny.8 mph28%29.90 "Hg10 mi
4:53 pm87 °FSunny.No wind25%29.91 "Hg10 mi
3:53 pm86 °FSunny.7 mph27%29.93 "Hg10 mi
2:53 pm86 °FSunny.10 mph25%29.94 "Hg10 mi
1:53 pm86 °FSunny.10 mph25%29.96 "Hg10 mi
12:53 pm84 °FSunny.16 mph26%29.97 "Hg10 mi
11:53 am83 °FSunny.12 mph31%29.98 "Hg10 mi
10:53 am80 °FSunny.10 mph32%29.99 "Hg10 mi
9:53 am77 °FSunny.10 mph36%30.00 "Hg10 mi
8:53 am64 °FSunny.No wind68%30.01 "Hg8 mi
7:53 am58 °FSunny.No wind78%30.01 "Hg10 mi
Weather by CustomWeather, © 2019

See weather overview